Theta_e
349 346 350 345 348 351 349 349 350 352 352 351 352 352 349 347 350 352 350 364 362 364 366 365 363 363 362 362 362 361 361 360 362 361 359 360 361 361 360 359 358 358 360
349 350 347 343 344 347 351 346 347 349 350 353 353 352 349 350 348 349 349 355 364 363 365 365 364 363 361 361 360 359 362 363 364 361 362 363 362 361 359 358 358 357 358
351 350 347 343 345 348 348 352 349 351 353 354 353 352 352 351 349 349 353 352 357 363 364 363 363 363 364 363 361 363 362 364 363 362 362 362 362 361 361 360 359 358 358
350 349 351 350 347 350 353 352 348 350 349 348 342 346 351 352 351 351 353 352 353 354 361 363 363 363 363 362 363 364 364 364 363 362 362 362 362 361 360 360 359 359 359
350 351 353 351 353 352 350 350 347 351 347 340 343 346 347 352 351 353 351 354 354 353 354 362 363 363 363 362 364 366 366 365 363 364 363 363 362 362 361 360 360 359 359
353 352 350 351 350 348 348 346 344 350 350 344 346 350 349 350 353 351 351 354 354 354 353 351 355 360 364 365 365 366 366 366 364 364 364 363 362 362 361 360 360 360 359
355 349 348 347 351 347 346 347 350 343 343 349 345 343 340 346 346 352 352 350 352 353 353 354 354 355 357 364 364 365 366 367 367 366 364 363 363 362 361 360 360 359 359
353 354 351 346 353 352 348 351 348 346 347 344 339 337 335 341 343 346 347 351 351 353 355 353 355 354 353 354 358 365 365 365 367 367 366 364 363 362 360 359 359 359 359
353 351 354 350 347 352 347 346 350 347 343 346 345 342 332 328 337 342 344 348 350 348 347 347 357 354 352 352 356 359 362 360 364 366 366 365 364 363 362 360 359 359 358
356 354 356 354 352 353 352 349 349 349 343 342 345 347 344 342 332 328 340 344 346 346 345 348 345 344 342 343 348 358 357 358 360 364 366 366 366 364 364 362 360 359 359
356 357 356 353 353 352 350 352 350 346 351 346 345 346 345 344 339 334 335 333 340 342 343 343 349 351 349 343 345 346 355 354 357 360 363 365 366 367 365 364 363 362 361
355 356 356 356 354 353 352 352 351 350 347 348 348 348 345 339 336 339 338 335 332 339 346 343 346 347 347 345 351 348 348 349 356 356 358 360 363 365 365 365 364 363 363
349 352 353 356 353 353 353 352 350 350 350 350 349 350 348 345 342 339 339 333 335 338 338 340 344 349 352 349 349 349 347 352 352 353 353 355 358 360 363 365 365 366 366
351 351 351 355 355 355 353 353 353 352 351 350 348 347 349 349 347 344 338 334 330 335 337 338 343 348 349 353 351 350 350 351 352 350 350 350 352 353 355 358 359 360 360
351 350 353 354 355 354 354 353 351 350 352 349 347 347 348 349 348 348 344 340 333 327 331 335 340 347 344 348 347 352 353 352 350 348 347 347 347 349 350 351 352 353 353
353 354 352 351 352 353 353 351 351 352 349 352 352 350 348 347 346 347 348 345 342 338 331 339 341 347 350 352 349 353 355 351 349 345 345 345 345 346 347 347 348 348 348
354 351 351 351 351 351 351 351 350 351 350 350 350 348 346 348 346 345 347 348 347 342 335 341 345 348 348 345 343 348 354 351 349 344 344 344 344 343 344 344 344 344 345
352 352 353 352 352 352 352 351 350 352 349 348 349 349 349 351 349 348 345 343 347 347 341 339 345 346 344 343 340 344 354 359 354 348 342 342 341 341 342 342 341 340 338
345 347 352 351 351 353 353 352 352 351 351 349 349 349 349 349 347 349 346 343 344 346 345 339 340 345 342 349 350 352 352 352 356 346 339 339 338 338 339 339 339 337 330
346 344 347 345 348 352 352 352 352 352 352 352 352 352 351 350 349 348 347 345 344 343 338 338 338 342 343 343 344 341 339 346 345 356 349 345 343 342 339 336 336 336 330
344 347 348 347 347 348 350 350 351 350 350 351 352 353 353 352 350 349 350 348 344 344 338 335 334 336 338 339 338 340 339 337 336 342 336 342 340 345 345 339 341 339 331
342 343 343 344 343 346 341 340 341 340 343 350 350 351 353 351 349 344 344 346 348 344 340 336 337 335 335 338 342 338 335 331 329 340 332 331 342 346 348 348 341 336 331
338 339 340 342 344 344 340 338 340 340 340 342 349 351 351 354 349 352 344 341 341 341 343 341 338 338 340 342 341 336 335 330 330 341 334 332 343 343 349 350 338 333 330
334 336 339 339 340 342 335 332 335 338 339 340 341 344 351 352 350 349 351 347 345 345 344 344 343 343 344 347 345 344 342 338 340 344 343 337 343 343 345 344 333 332 328
330 332 336 338 339 341 333 331 332 338 341 342 344 345 347 349 345 338 349 348 347 346 340 335 337 338 338 338 346 343 341 339 336 340 345 341 341 342 342 341 332 329 325
328 332 334 336 336 339 332 328 329 337 338 340 340 344 339 340 336 334 345 349 346 347 347 347 341 336 335 340 337 345 343 339 337 335 342 340 340 340 335 342 333 329 327
Wind_Speed
6 4 4 3 1 4 4 4 2 3 3 5 5 5 7 6 8 3 2 13 14 16 17 17 17 16 16 16 15 14 13 13 12 12 12 11 10 10 10 11 10 9 9
4 6 3 2 2 2 5 1 0 2 4 4 5 6 6 6 7 6 5 6 14 15 16 17 17 17 18 16 15 15 13 13 13 12 11 11 10 10 11 10 10 10 8
10 7 3 5 1 4 4 3 2 3 5 3 6 5 5 7 5 7 6 6 8 16 17 17 17 18 17 17 17 15 15 15 15 13 12 12 12 12 11 10 10 9 8
10 6 4 5 5 3 4 2 2 4 2 1 3 4 3 5 6 5 7 5 6 6 12 14 15 16 17 18 16 15 15 15 13 12 13 13 13 12 11 10 9 8 8
6 6 5 4 6 4 2 3 2 4 4 3 5 3 3 4 6 5 7 10 9 8 6 13 16 16 18 19 17 16 16 15 14 14 14 14 13 13 12 10 9 8 8
5 3 2 3 4 4 4 2 3 1 2 4 3 4 3 5 5 4 5 6 7 9 8 5 5 9 17 17 16 16 16 15 16 15 15 14 13 12 12 11 10 10 9
6 6 3 3 3 4 3 4 2 2 1 3 0 2 3 4 4 7 6 5 3 8 8 6 5 6 7 17 16 16 17 17 16 16 15 14 13 12 12 11 11 12 11
7 6 6 4 1 2 1 4 2 1 2 1 2 3 1 2 3 1 2 4 7 6 4 4 5 6 5 4 10 17 17 16 16 17 16 15 14 13 13 12 12 13 12
6 6 6 5 3 1 2 2 3 2 2 2 4 4 0 4 1 2 0 6 3 3 1 5 2 3 4 4 6 11 16 14 16 17 18 16 15 14 13 13 13 13 13
5 5 5 6 5 3 2 3 2 2 2 3 2 2 5 5 3 4 1 1 5 5 6 1 5 4 4 5 10 10 10 13 14 15 17 16 15 15 15 14 14 14 14
7 7 7 7 6 4 4 4 2 3 2 1 1 2 3 1 3 2 2 1 3 5 5 4 6 5 8 5 5 10 14 12 14 16 17 16 15 17 17 16 15 15 15
4 6 5 6 6 5 6 5 3 3 4 3 2 2 2 3 2 2 3 4 3 4 1 4 7 4 3 6 6 22 21 21 13 15 17 16 15 16 16 16 16 17 17
1 5 3 6 4 6 7 5 4 5 3 2 3 3 2 3 3 2 1 2 4 3 2 3 8 7 9 8 8 21 22 22 15 14 16 14 14 15 15 15 15 17 18
5 6 7 9 7 7 6 6 4 5 5 5 6 5 3 3 2 2 2 1 4 2 1 6 3 9 8 9 11 16 14 19 18 15 16 15 14 14 12 12 12 12 12
5 6 7 6 7 7 7 6 5 5 5 5 6 6 4 4 3 3 3 3 3 3 3 5 4 7 8 10 16 9 11 13 15 15 16 16 16 14 12 12 11 11 11
5 6 4 4 5 6 7 6 5 6 6 5 5 6 5 4 5 4 4 2 1 3 2 2 2 7 9 7 5 10 11 16 19 19 17 16 14 14 13 12 12 12 11
6 5 6 6 4 6 7 6 6 7 8 8 7 7 7 6 5 4 4 1 3 1 2 3 3 2 5 4 3 7 7 8 7 16 14 15 15 14 11 11 11 11 11
3 4 4 5 6 6 6 6 7 7 7 8 9 6 8 6 7 7 4 6 5 4 3 2 3 3 5 6 7 5 4 5 6 9 19 16 16 12 12 12 12 11 11
5 6 4 5 6 6 7 7 7 7 7 7 9 8 10 7 7 7 8 6 5 4 4 2 4 2 4 3 4 4 5 5 3 2 8 12 8 9 12 12 12 11 10
5 6 6 6 7 6 6 6 7 8 9 10 10 8 8 8 10 8 8 7 5 5 4 4 4 4 3 3 2 3 3 1 1 0 1 5 7 7 8 12 12 12 12
6 6 5 5 6 5 5 6 6 6 8 9 10 9 10 10 13 13 7 9 7 8 5 4 4 3 4 2 4 3 4 2 3 3 2 3 3 3 4 9 13 14 14
6 6 6 6 7 5 8 9 6 5 5 6 9 9 10 12 14 16 17 15 12 10 9 5 8 9 9 4 4 5 3 3 3 4 5 4 3 3 4 6 12 15 15
6 6 6 6 6 6 9 12 13 6 6 7 6 7 8 9 11 11 14 17 16 17 15 10 11 11 9 8 6 5 5 4 4 2 3 4 4 5 8 9 16 18 17
7 7 8 7 7 7 10 8 9 6 6 7 8 8 8 9 9 9 10 11 13 13 13 11 13 12 10 7 6 6 7 6 3 3 4 4 2 5 4 5 9 15 17
9 7 8 10 7 8 10 10 7 6 6 7 7 8 9 10 11 13 11 12 11 13 11 18 17 15 15 13 8 4 4 4 4 4 4 5 4 4 3 3 4 12 15
9 6 8 10 10 10 10 11 8 4 6 5 6 6 10 13 13 15 12 12 13 15 10 9 8 12 15 14 16 11 6 7 4 2 5 5 4 4 3 3 4 4 5
Wind_Direction
169 216 225 195 224 272 241 239 256 275 274 241 232 238 233 205 218 193 183 198 195 201 199 196 197 198 197 202 207 215 222 222 220 221 222 223 218 217 219 228 236 241 250
160 213 218 168 205 246 295 309 266 275 276 256 249 246 232 202 198 202 188 203 203 210 209 202 200 204 207 211 215 219 226 224 224 226 231 229 221 224 230 233 233 237 240
178 220 145 243 255 224 251 279 311 331 302 272 284 274 257 260 188 189 185 192 203 210 207 204 205 207 211 214 221 226 228 225 224 218 226 225 222 221 219 221 224 228 226
176 179 188 228 224 227 228 193 171 144 314 284 244 273 276 265 237 183 180 177 198 200 208 208 208 208 214 219 226 229 228 224 229 214 219 217 219 220 219 217 223 227 226
185 181 196 217 211 216 201 152 214 178 178 275 252 250 298 283 239 204 192 193 191 193 197 210 211 210 216 221 223 228 233 225 224 221 220 217 218 218 217 216 220 225 229
206 225 219 245 199 148 187 192 174 196 155 213 263 355 343 336 322 264 227 191 185 197 190 190 206 224 217 222 226 230 230 229 225 221 221 220 218 222 220 215 217 216 219
195 197 250 282 292 151 214 230 187 66 132 181 72 65 35 302 337 301 335 344 226 200 135 201 195 219 214 223 226 227 227 229 228 229 225 223 221 221 222 218 217 217 218
176 186 211 234 256 26 42 235 227 146 245 99 85 101 332 298 283 310 67 343 7 12 237 252 230 202 201 209 226 225 221 222 231 234 229 223 222 219 219 217 216 219 218
188 191 192 224 220 248 294 300 236 196 257 304 184 163 64 235 265 290 201 113 149 102 69 325 228 241 354 352 255 229 225 220 227 232 234 226 224 221 219 219 218 220 219
202 209 222 197 223 229 270 264 256 238 128 261 309 201 226 177 179 339 90 274 144 162 205 200 98 129 87 18 354 284 242 214 227 232 235 227 223 223 219 221 222 223 224
211 208 213 205 212 214 237 257 256 270 228 208 272 338 317 336 100 144 280 313 305 216 194 193 102 58 337 19 281 291 307 249 209 225 230 226 225 226 221 221 222 224 226
232 232 212 196 204 211 217 234 257 262 249 259 243 288 266 289 247 182 247 233 215 262 338 127 119 168 117 257 228 266 263 282 242 216 225 223 223 229 228 227 228 230 231
233 249 270 231 193 198 220 226 239 262 254 215 247 243 243 266 297 287 278 257 214 245 321 200 145 187 193 220 203 236 256 252 238 218 219 220 225 227 225 225 228 229 230
216 218 242 226 200 206 213 213 217 230 227 230 234 240 253 239 254 286 272 304 312 291 328 244 153 166 172 199 228 252 248 228 218 211 218 215 220 227 227 230 232 238 245
234 231 222 219 208 217 215 210 221 229 238 240 229 218 223 260 269 262 255 209 196 272 241 262 133 178 168 188 192 192 219 214 208 215 218 214 215 219 221 227 230 235 239
243 257 275 260 233 236 214 211 231 237 236 236 224 214 218 226 244 264 279 304 252 210 248 234 136 180 175 233 217 193 214 203 208 212 215 215 213 214 218 219 223 225 228
237 254 263 261 231 234 238 222 229 238 239 242 235 221 223 217 230 242 245 288 297 246 184 298 79 199 188 212 192 209 216 188 215 218 218 213 214 213 216 219 216 216 218
271 224 240 247 243 242 235 234 235 238 234 246 247 236 234 220 217 222 228 237 233 202 188 256 220 174 196 226 214 204 203 194 216 216 228 212 220 211 211 224 221 210 209
290 303 300 267 258 238 229 227 227 232 233 235 241 228 250 220 228 234 235 229 216 206 180 161 284 188 216 195 233 232 200 235 220 181 222 218 246 226 214 219 223 211 202
271 281 261 273 273 264 249 242 230 231 235 237 239 231 231 225 237 229 231 229 230 218 201 188 213 240 218 216 170 205 264 272 199 6 138 181 206 201 234 252 237 214 201
274 259 249 246 253 253 268 253 254 264 252 244 240 235 237 230 220 229 220 230 221 233 229 207 214 210 226 212 187 199 204 202 250 218 233 242 188 207 233 243 251 225 196
302 306 295 267 260 260 263 265 240 249 270 267 255 249 238 232 234 228 222 222 211 218 228 214 243 239 245 209 176 194 180 174 251 210 200 269 178 253 252 238 234 222 197
306 294 288 291 287 279 268 256 258 258 244 253 254 247 245 246 231 233 229 230 223 216 214 210 234 235 240 220 171 183 180 173 213 238 132 258 177 245 248 238 224 210 192
316 312 297 268 272 275 272 288 267 255 247 247 249 254 247 249 239 229 235 234 225 226 222 223 226 233 235 228 194 175 182 199 233 225 173 234 207 241 227 235 248 206 176
306 297 296 294 276 273 262 268 273 265 256 254 248 246 250 256 246 225 233 236 237 237 224 216 223 228 228 238 224 165 197 172 224 228 209 208 230 242 234 246 194 189 192
285 291 297 297 281 276 269 252 256 241 253 253 270 277 271 262 254 232 226 235 237 234 221 225 227 239 237 235 226 216 204 209 193 245 221 184 199 174 278 249 198 173 188